Location: Unspecified
(0.0000°N, 0.0000°E)
Time: 10:40:22
(UTC+00:00)

MIDAS 4 DEB - Pass Details

Date: 17 November 2025
Orbit: 3306 x 3926 km, 95.8° (Epoch: 14 April)

Event Time Altitude Azimuth Distance (km) Brightness Sun altitude
Rises 21:14:54 0° 0° (N) 7,429 ? -48.5°
Enters shadow 21:17:21 - 358° (N) 6,841 ? -49.0°
Exits shadow 21:28:50 41° 337° (NNW) 4,531 ? -51.5°
Maximum altitude 21:36:15 59° 282° (WNW) 4,021 ? -53.0°
Drops below altitude 10° 21:55:11 10° 205° (SSW) 6,960 ? -56.9°
Sets 21:59:59 0° 201° (SSW) 8,040 ? -57.9°
